sat.trackr.live / text

‹ back to catalog

SITRO-AIS 42

NORAD 61756 · 2024-199X

PAYLOAD ACTIVE UNKNOWN

§ Identity

Operator
Country
CIS
Launch date
2024-11-04
Launch site
VOSTO
Launch vehicle
Mass (kg)
RCS (m²)

External: N2YO · Heavens-Above · Gunter

§ Orbital elements

Epoch: 2026-05-25T03:55:49.391040Z

Period
92.00 min
Inclination
97.2942°
Eccentricity
0.0004203
Mean motion
15.65286691 rev/d
Perigee alt
369.6 km
Apogee alt
375.3 km
Semi-major
6,750.6 km
B*
7.8020e-4
RAAN
23.6699°
Arg perigee
30.0059°
Mean anomaly
330.1441°
Rev number
13,419

§ Raw data

SITRO-AIS 421 61756U 24199X   26145.16376610  .00077872  00000+0  78020-3 0  99982 61756  97.2942  23.6699 0004203  30.0059 330.1441 15.65286691134194

JSON: /api/v1/satellites/61756 · /tle

For live sub-satellite position, see the globe view (requires WebGL).

§ Visibility from observer

Set your observer location to see the next 7 days of passes ≥ 10°. The values pass through the URL so the page stays shareable.

No JS? Fill the form by hand. The geolocation button needs JavaScript.

§ Radio — SatNOGS DB

ModeDescriptionDownlinkUplink
GMSK USP Mode U - GMSK2k4 - USP 401.125 MHz

1 transmitter · refreshed weekly from db.satnogs.org